Location: Brno
(49.2000°N, 16.6330°E)
Time: 00:24:05
(UTC+01:00)

Cosmos 332 Rocket - Visible Passes

Search period start: 21 February 2018 00:00
Search period end: 03 March 2018 00:00
Orbit: 682 x 705 km, 74.0° (Epoch: 19 February)

Date Brightness Start Highest point End Pass type
(mag) Time Alt. Az. Time Alt. Az. Time Alt. Az.
24 Feb 6.3 20:44:18 10° N 20:45:00 13° N 20:45:00 13° N visible
25 Feb 6.2 19:46:24 10° NNE 19:46:50 11° NNE 19:46:50 11° NNE visible
25 Feb 6.5 21:24:52 10° NNW 21:25:32 14° NNW 21:25:32 14° NNW visible
26 Feb 5.9 20:25:56 10° N 20:27:24 17° N 20:27:24 17° N visible
26 Feb 6.9 22:06:00 10° NNW 22:06:06 11° NNW 22:06:06 11° NNW visible
27 Feb 5.9 19:27:51 10° NNE 19:29:17 12° NE 19:29:17 12° NE visible
27 Feb 6.0 21:06:33 10° NNW 21:07:59 19° NNW 21:07:59 19° NNW visible
28 Feb 5.5 20:07:35 10° N 20:09:54 21° NNE 20:09:54 21° NNE visible
28 Feb 6.5 21:47:44 10° NNW 21:48:37 15° NW 21:48:37 15° NW visible
01 Mar 5.7 19:09:21 10° NNE 19:11:38 13° NE 19:11:50 13° NE visible
01 Mar 5.5 20:48:15 10° NNW 20:50:33 28° NNW 20:50:33 28° NNW visible
02 Mar 5.0 19:49:13 10° N 19:52:32 27° NE 19:52:32 27° NE visible
02 Mar 6.1 21:29:28 10° NW 21:31:14 21° NW 21:31:14 21° NW visible
